TimePDT,TemperatureF,Dew PointF,Humidity,Sea Level PressureIn,VisibilityMPH,Wind Direction,Wind SpeedMPH,Gust SpeedMPH,PrecipitationIn,Events,Conditions,WindDirDegrees,DateUTC
12:15 AM,51.8,48.2,88,29.96,1.0,East,3.5,-,N/A,,Overcast,80,2013-10-21 07:15:00
12:30 AM,51.8,48.2,88,29.96,2.5,ESE,6.9,-,N/A,,Overcast,120,2013-10-21 07:30:00
12:53 AM,51.1,48.9,92,29.99,2.0,East,5.8,-,N/A,,Overcast,90,2013-10-21 07:53:00
1:30 AM,51.8,48.2,88,29.97,3.0,ESE,4.6,-,N/A,,Overcast,120,2013-10-21 08:30:00
1:53 AM,51.1,48.9,92,30.00,3.0,East,3.5,-,N/A,,Overcast,90,2013-10-21 08:53:00
2:53 AM,51.1,48.0,89,30.01,3.0,Calm,Calm,-,N/A,,Overcast,0,2013-10-21 09:53:00
3:21 AM,51.8,48.2,88,29.97,2.5,Calm,Calm,-,N/A,,Overcast,0,2013-10-21 10:21:00
3:29 AM,51.8,48.2,88,29.97,3.0,Calm,Calm,-,N/A,,Overcast,0,2013-10-21 10:29:00
3:53 AM,51.1,48.0,89,30.00,3.0,Calm,Calm,-,N/A,,Overcast,0,2013-10-21 10:53:00
4:53 AM,50.0,48.0,93,29.99,2.0,Calm,Calm,-,N/A,,Overcast,0,2013-10-21 11:53:00
5:13 AM,50.0,48.2,94,29.97,3.0,ESE,4.6,-,N/A,,Overcast,120,2013-10-21 12:13:00
5:22 AM,48.2,46.4,93,29.97,2.0,Calm,Calm,-,N/A,,Overcast,0,2013-10-21 12:22:00
5:36 AM,50.0,48.2,94,29.97,1.5,Calm,Calm,-,N/A,,Overcast,0,2013-10-21 12:36:00
5:53 AM,48.9,46.9,93,30.01,1.2,South,3.5,-,N/A,,Overcast,180,2013-10-21 12:53:00
6:40 AM,48.2,46.4,93,29.99,0.8,Calm,Calm,-,N/A,,Overcast,0,2013-10-21 13:40:00
6:53 AM,48.9,46.9,93,30.02,1.0,Calm,Calm,-,N/A,,Overcast,0,2013-10-21 13:53:00
7:23 AM,48.2,46.4,93,29.99,0.8,ESE,3.5,-,N/A,,Overcast,120,2013-10-21 14:23:00
7:53 AM,48.0,46.0,93,30.03,1.2,ESE,3.5,-,N/A,,Overcast,120,2013-10-21 14:53:00
8:05 AM,48.2,46.4,93,30.00,2.0,SE,3.5,-,N/A,,Overcast,130,2013-10-21 15:05:00
8:16 AM,46.4,46.4,100,30.00,1.2,East,3.5,-,N/A,,Overcast,80,2013-10-21 15:16:00
8:30 AM,46.4,46.4,100,30.00,0.8,Calm,Calm,-,N/A,,Overcast,0,2013-10-21 15:30:00
8:41 AM,46.4,46.4,100,30.01,1.2,ENE,3.5,-,N/A,,Overcast,60,2013-10-21 15:41:00
8:53 AM,46.9,46.0,97,30.04,0.8,East,3.5,-,N/A,,Overcast,80,2013-10-21 15:53:00
9:22 AM,48.2,46.4,93,30.01,1.5,Calm,Calm,-,N/A,,Overcast,0,2013-10-21 16:22:00
9:41 AM,48.2,46.4,93,30.01,2.5,Calm,Calm,-,N/A,,Overcast,0,2013-10-21 16:41:00
9:53 AM,48.9,46.9,93,30.04,3.0,Calm,Calm,-,N/A,,Overcast,0,2013-10-21 16:53:00
10:36 AM,53.6,46.4,77,30.01,5.0,Calm,Calm,-,N/A,,Haze,0,2013-10-21 17:36:00
10:43 AM,51.8,46.4,82,30.01,5.0,Calm,Calm,-,N/A,,Haze,0,2013-10-21 17:43:00
10:53 AM,54.0,46.9,77,30.03,6.0,Calm,Calm,-,N/A,,Haze,0,2013-10-21 17:53:00
11:53 AM,60.1,45.0,57,30.02,9.0,Calm,Calm,-,N/A,,Clear,0,2013-10-21 18:53:00
12:53 PM,66.9,46.0,47,29.99,8.0,WNW,5.8,-,N/A,,Clear,300,2013-10-21 19:53:00
1:53 PM,64.0,48.9,58,29.97,6.0,West,11.5,-,N/A,,Haze,280,2013-10-21 20:53:00
2:53 PM,61.0,48.9,64,29.97,8.0,West,13.8,-,N/A,,Clear,280,2013-10-21 21:53:00
3:53 PM,61.0,50.0,67,29.97,10.0,WNW,11.5,-,N/A,,Clear,300,2013-10-21 22:53:00
4:53 PM,57.9,50.0,75,29.98,10.0,West,13.8,-,N/A,,Clear,280,2013-10-21 23:53:00
5:53 PM,55.9,48.9,77,29.98,10.0,WNW,10.4,-,N/A,,Clear,300,2013-10-22 00:53:00
6:00 PM,55.4,48.2,77,29.96,10.0,WNW,10.4,-,N/A,,Scattered Clouds,300,2013-10-22 01:00:00
6:12 PM,55.4,48.2,77,29.96,10.0,NW,9.2,-,N/A,,Mostly Cloudy,310,2013-10-22 01:12:00
6:53 PM,55.0,50.0,83,29.99,10.0,West,9.2,-,N/A,,Overcast,280,2013-10-22 01:53:00
7:53 PM,53.1,48.9,86,30.01,10.0,West,5.8,-,N/A,,Overcast,280,2013-10-22 02:53:00
8:53 PM,52.0,48.9,89,30.01,9.0,NW,5.8,-,N/A,,Overcast,310,2013-10-22 03:53:00
9:53 PM,52.0,48.9,89,30.03,8.0,NW,3.5,-,N/A,,Overcast,320,2013-10-22 04:53:00
10:53 PM,53.1,48.9,86,30.03,8.0,NW,3.5,-,N/A,,Overcast,320,2013-10-22 05:53:00
11:53 PM,52.0,48.9,89,30.03,6.0,East,3.5,-,N/A,,Overcast,90,2013-10-22 06:53:00